Weather reports worldwide

Advertisment
Aachen-Orsbach, Germany (10505): temperature & dewpoint: 11.10.2018 08:00:00 - 17.10.2018 08:00:00 (CEST)Aachen-Orsbach, Germany (10505): temperature 5cm & temperature -5cm: 11.10.2018 08:00:00 - 17.10.2018 08:00:00 (CEST)Aachen-Orsbach, Germany (10505): temperature -20cm & temperature -100cm: 11.10.2018 08:00:00 - 17.10.2018 08:00:00 (CEST)Aachen-Orsbach, Germany (10505): wind speed & gusts: 11.10.2018 08:00:00 - 17.10.2018 08:00:00 (CEST)Aachen-Orsbach, Germany (10505): wind direction: 11.10.2018 08:00:00 - 17.10.2018 08:00:00 (CEST)Aachen-Orsbach, Germany (10505): reduced air pressure: 11.10.2018 08:00:00 - 17.10.2018 08:00:00 (CEST)Aachen-Orsbach, Germany (10505): visibility: 11.10.2018 08:00:00 - 17.10.2018 08:00:00 (CEST)Aachen-Orsbach, Germany (10505): sunshine duration: 11.10.2018 08:00:00 - 17.10.2018 08:00:00 (CEST)Aachen-Orsbach, Germany (10505): precipitation: 11.10.2018 08:00:00 - 17.10.2018 08:00:00 (CEST)
Date & Time tt [°C] td [°C] tt 5cm [°C] tt -5cm [°C] tt -20cm [°C] tt -100cm [°C] ff [km/h] ff [kn] fx [km/h] fx [kn] dd ppp [hPa] vv [km] sd [min] rr [mm]
17.10.2018 08:00:00 11,6 7,5 8,6 12,4 14,9 14,7 9 5 18 10 SW 1019,3 50 0 0,0
17.10.2018 07:00:00 13,4 7,8 12,3 12,8 15,0 14,7 13 7 22 12 WSW 1018,9 50 0 0,0
17.10.2018 06:00:00 14,9 8,5 13,1 13,1 15,1 14,7 16 9 23 12 SW 1018,3 50 0 0,0
17.10.2018 05:00:00 15,6 8,3 13,8 13,4 15,3 14,7 14 7 28 15 SW 1018,1 45 0 0,0
17.10.2018 04:00:00 17,8 8,4 15,6 13,3 15,4 14,7 20 11 25 13 S 1018,0 60 0 0,0
17.10.2018 03:00:00 17,1 7,0 14,3 13,2 15,5 14,7 17 9 24 13 S 1018,2 52 0 0,0
17.10.2018 02:00:00 15,9 7,7 12,1 13,2 15,7 14,7 14 7 16 9 S 1018,7 54 0 0,0
17.10.2018 01:00:00 15,1 8,5 9,6 13,7 15,9 14,7 9 5 20 11 SSE 1018,9 46 0 0,0
17.10.2018 00:00:00 16,7 8,3 13,1 13,9 16,0 14,7 13 7 16 8 S 1019,1 64 0 0,0
16.10.2018 23:00:00 17,3 7,7 12,7 14,3 16,2 14,7 13 7 16 9 S 1019,3 54 0 0,0
16.10.2018 22:00:00 18,2 7,1 11,8 14,9 16,3 14,7 12 7 14 8 SSE 1019,1 48 0 0,0
16.10.2018 21:00:00 16,9 7,9 12,2 15,5 16,3 14,7 11 6 14 8 SE 1019,1 9 0 0,0
16.10.2018 20:00:00 18,0 8,2 13,7 16,4 16,3 14,7 12 7 14 8 ESE 1018,7 53 0 0,0
16.10.2018 19:00:00 18,5 8,6 15,3 17,7 16,2 14,7 12 7 19 11 E 1018,3 14 4 0,0
16.10.2018 18:00:00 19,7 9,9 18,8 19,1 16,0 14,7 14 8 22 12 E 1017,8 16 39 0,0
16.10.2018 17:00:00 23,7 8,3 25,1 20,0 15,7 14,7 16 8 24 13 ESE 1017,5 50 57 0,0
16.10.2018 16:00:00 23,1 8,7 24,8 20,4 15,4 14,7 10 6 16 9 E 1017,7 50 22 0,0
16.10.2018 15:00:00 23,1 10,3 24,8 20,6 15,0 14,7 8 5 18 10 E 1017,8 50 16 0,0
16.10.2018 14:00:00 22,8 10,0 25,2 20,6 14,7 14,7 12 7 18 10 E 1017,9 50 51 0,0
16.10.2018 13:00:00 22,6 9,9 25,6 18,9 14,5 14,7 7 4 11 6 E 1018,1 50 56 0,0
16.10.2018 12:00:00 21,0 10,8 23,4 16,5 14,4 14,7 5 3 9 5 ESE 1018,4 50 56 0,0
16.10.2018 11:00:00 16,8 11,2 18,3 14,5 14,5 14,7 5 3 9 5 E 1018,8 50 54 0,0
16.10.2018 10:00:00 14,3 8,5 13,1 12,6 14,6 14,6 3 2 9 5 NW 1018,8 50 56 0,0
16.10.2018 09:00:00 13,3 7,1 10,4 11,5 14,7 14,6 6 3 12 6 NE 1018,5 50 8 0,0
16.10.2018 08:00:00 14,0 7,0 8,1 11,6 14,9 14,6 7 4 9 5 ESE 1018,0 50 0 0,0
16.10.2018 07:00:00 16,3 7,2 8,7 11,6 15,1 14,6 8 5 11 6 SE 1017,6 50 0 0,0
16.10.2018 06:00:00 15,6 6,7 7,3 11,8 15,3 14,6 8 4 9 5 SE 1017,4 50 0 0,0
16.10.2018 05:00:00 16,1 7,1 7,7 12,1 15,5 14,6 6 3 9 5 SE 1017,2 60 0 0,0
16.10.2018 04:00:00 15,5 7,5 7,5 12,3 15,7 14,6 6 3 9 5 SE 1017,2 51 0 0,0
16.10.2018 03:00:00 14,3 7,8 7,9 12,6 15,9 14,6 5 3 6 3 E 1017,0 52 0 0,0
16.10.2018 02:00:00 15,6 7,3 9,9 13,0 16,1 14,6 5 3 8 4 N 1016,5 58 0 0,0
16.10.2018 01:00:00 16,3 7,7 7,7 13,4 16,3 14,6 3 2 5 3 SW 1016,0 55 0 0,0
16.10.2018 00:00:00 15,8 7,7 8,3 13,9 16,5 14,6 2 1 8 5 WSW 1015,9 65 0 0,0
15.10.2018 23:00:00 15,2 7,9 9,6 14,5 16,7 14,6 9 5 12 7 SSE 1015,8 52 0 0,0
15.10.2018 22:00:00 16,9 7,9 10,0 15,1 16,9 14,6 9 5 11 6 SE 1015,2 54 0 0,0
15.10.2018 21:00:00 15,7 7,7 10,6 15,9 17,0 14,6 6 4 10 5 SSE 1015,2 53 0 0,0
15.10.2018 20:00:00 19,2 7,9 11,5 16,9 17,0 14,6 6 3 7 4 SW 1014,7 57 0 0,0
15.10.2018 19:00:00 20,1 7,6 12,6 18,3 16,9 14,6 3 2 9 5 SW 1014,2 63 24 0,0
15.10.2018 18:00:00 21,7 8,5 20,7 19,7 16,7 14,6 7 4 26 14 WSW 1013,4 57 60 0,0
15.10.2018 17:00:00 22,4 8,7 23,2 20,7 16,4 14,6 17 9 25 13 SW 1012,9 60 60 0,0
15.10.2018 16:00:00 23,4 7,8 24,8 21,5 16,1 14,6 18 10 26 14 SSW 1012,4 60 60 0,0
15.10.2018 15:00:00 23,1 9,7 25,0 21,5 15,8 14,6 14 7 20 11 WSW 1012,4 60 60 0,0
15.10.2018 14:00:00 22,7 8,8 25,6 20,7 15,5 14,6 13 7 26 14 SSW 1012,5 60 60 0,0
15.10.2018 13:00:00 22,3 8,5 24,5 19,5 15,4 14,6 17 9 23 12 S 1012,7 60 60 0,0
15.10.2018 12:00:00 21,5 8,8 23,4 17,8 15,3 14,6 18 10 26 14 S 1012,6 60 37 0,0
15.10.2018 11:00:00 19,7 8,2 19,8 16,2 15,3 14,6 16 8 33 18 S 1012,4 60 33 0,0
15.10.2018 10:00:00 18,4 7,8 17,4 14,8 15,3 14,5 21 11 29 15 S 1012,2 60 4 0,0
15.10.2018 09:00:00 17,6 7,3 16,3 14,4 15,4 14,5 20 11 30 16 S 1011,7 60 0 0,0
15.10.2018 08:00:00 17,4 7,4 16,0 14,3 15,5 14,5 18 10 29 16 S 1011,2 60 0 0,0
15.10.2018 07:00:00 17,5 7,1 15,8 14,5 15,5 14,5 16 9 27 15 S 1010,8 60 0 0,0
15.10.2018 06:00:00 18,2 6,6 16,5 14,7 15,6 14,5 12 6 30 16 S 1010,3 60 0 0,0
15.10.2018 05:00:00 18,7 6,5 17,5 14,7 15,6 14,5 21 11 35 19 SSW 1009,7 67 0 0,0
15.10.2018 04:00:00 18,7 6,5 17,5 14,9 15,7 14,5 22 12 35 19 SSW 1009,7 58 0 0,0
15.10.2018 03:00:00 18,8 6,6 17,7 15,0 15,8 14,5 21 11 34 18 SSW 1009,8 63 0 0,0
15.10.2018 02:00:00 19,0 6,1 18,2 14,9 15,9 14,5 21 12 40 22 SSW 1009,7 63 0 0,0
15.10.2018 01:00:00 19,0 5,7 17,4 14,7 16,0 14,5 28 15 41 22 S 1009,2 67 0 0,0
15.10.2018 00:00:00 19,4 5,6 17,7 14,8 16,1 14,5 26 14 39 21 S 1009,3 62 0 0,0
14.10.2018 23:00:00 19,5 6,1 17,5 14,8 16,2 14,5 22 12 32 17 SSW 1009,0 72 0 0,0
14.10.2018 22:00:00 17,6 8,6 12,5 15,0 16,4 14,5 7 4 13 7 E 1009,0 64 0 0,0
14.10.2018 21:00:00 17,3 9,7 12,7 15,8 16,4 14,5 8 5 15 8 E 1008,9 61 0 0,0
14.10.2018 20:00:00 19,2 9,6 14,5 16,6 16,4 14,5 11 6 19 11 SSE 1008,6 70 0 0,0
14.10.2018 19:00:00 19,9 9,8 16,7 17,5 16,4 14,5 13 7 23 12 SSE 1008,3 64 0 0,0
14.10.2018 18:00:00 22,0 9,4 20,1 18,3 16,2 14,5 15 8 36 20 SSE 1007,7 69 14 0,0
14.10.2018 17:00:00 23,2 8,9 23,1 18,9 16,0 14,5 23 12 40 22 S 1007,8 75 26 0,0
14.10.2018 16:00:00 24,3 9,7 25,7 19,4 15,8 14,5 27 15 53 29 S 1007,6 46 59 0,0
14.10.2018 15:00:00 23,2 10,1 23,3 18,7 15,6 14,5 29 16 53 29 SSE 1007,8 60 22 0,0
14.10.2018 14:00:00 22,8 8,4 23,1 18,8 15,4 14,5 25 14 50 27 S 1008,8 51 52 0,0
14.10.2018 13:00:00 22,8 9,9 23,5 18,8 15,3 14,5 33 18 56 31 S 1009,2 75 60 0,0
14.10.2018 12:00:00 21,8 8,6 22,6 17,4 15,2 14,5 27 15 51 27 SSW 1009,5 71 60 0,0
14.10.2018 11:00:00 19,9 9,7 20,2 15,9 15,2 14,5 24 13 36 20 SSW 1009,9 47 60 0,0
14.10.2018 10:00:00 18,4 9,9 18,0 14,6 15,3 14,4 26 14 43 23 SSW 1010,0 60 60 0,0
14.10.2018 09:00:00 17,3 10,3 16,0 13,9 15,4 14,4 20 11 35 19 S 1010,1 49 30 0,0
14.10.2018 08:00:00 16,7 10,2 14,3 13,8 15,5 14,4 15 8 24 13 S 1010,2 54 0 0,0
14.10.2018 07:00:00 16,9 10,2 15,1 14,0 15,6 14,4 20 11 34 18 S 1010,3 73 0 0,0
14.10.2018 06:00:00 17,2 10,2 15,5 14,1 15,8 14,4 24 13 32 18 S 1010,7 60 0 0,0
14.10.2018 05:00:00 16,8 10,3 14,0 14,0 15,9 14,4 13 7 21 11 SSE 1011,2 58 0 0,0
14.10.2018 04:00:00 17,5 10,5 14,0 14,0 16,1 14,4 14 7 20 11 ESE 1011,9 66 0 0,0
14.10.2018 03:00:00 16,9 10,5 12,5 14,2 16,2 14,4 10 5 16 9 E 1012,5 55 0 0,0
14.10.2018 02:00:00 16,8 10,3 12,0 14,6 16,4 14,4 6 3 18 10 E 1013,1 65 0 0,0
14.10.2018 01:00:00 19,2 10,5 15,8 15,0 16,6 14,4 13 7 27 14 S 1013,5 75 0 0,0
14.10.2018 00:00:00 19,3 10,3 15,2 15,3 16,7 14,4 9 5 16 9 ENE 1013,9 69 0 0,0
13.10.2018 23:00:00 18,7 10,7 14,8 15,7 16,9 14,4 11 6 16 9 ESE 1013,9 62 0 0,0
13.10.2018 22:00:00 18,0 10,6 14,4 16,4 17,0 14,4 11 6 18 10 E 1014,2 71 0 0,0
13.10.2018 21:00:00 18,0 10,7 15,3 17,1 17,1 14,4 16 8 21 12 E 1014,4 67 0 0,0
13.10.2018 20:00:00 19,9 10,6 16,7 17,9 17,1 14,4 16 9 21 11 ESE 1014,8 62 0 0,0
13.10.2018 19:00:00 21,6 10,8 18,0 19,0 16,9 14,4 12 6 24 13 ESE 1015,0 61 25 0,0
13.10.2018 18:00:00 23,5 10,5 23,0 20,2 16,7 14,4 16 9 32 18 SSE 1014,9 71 60 0,0
13.10.2018 17:00:00 25,1 10,1 25,4 21,2 16,5 14,4 19 10 37 20 S 1015,4 59 60 0,0
13.10.2018 16:00:00 25,9 10,8 27,3 21,6 16,2 14,4 24 13 41 22 S 1015,8 73 60 0,0
13.10.2018 15:00:00 26,0 9,9 27,3 21,6 15,9 14,4 31 17 47 25 S 1016,2 61 60 0,0
13.10.2018 14:00:00 25,2 10,9 27,2 20,9 15,6 14,4 30 16 41 22 SSE 1017,1 75 60 0,0
13.10.2018 13:00:00 24,7 11,5 26,4 19,9 15,4 14,4 27 15 40 22 S 1018,2 64 60 0,0
13.10.2018 12:00:00 24,2 13,4 25,6 18,8 15,3 14,4 21 11 36 20 S 1018,5 55 60 0,0
13.10.2018 11:00:00 21,8 13,2 22,3 17,0 15,2 14,4 25 14 36 20 S 1018,9 46 60 0,0
13.10.2018 10:00:00 20,4 12,8 20,0 15,4 15,3 14,4 23 12 36 19 S 1019,3 37 60 0,0
13.10.2018 09:00:00 18,7 12,1 17,3 14,7 15,3 14,4 20 11 26 14 SSE 1019,6 72 31 0,0
13.10.2018 08:00:00 18,5 12,0 16,7 14,7 15,4 14,4 19 11 32 17 S 1019,6 61 0 0,0
13.10.2018 07:00:00 17,9 12,0 16,4 14,8 15,5 14,4 22 12 29 16 SSE 1020,0 56 0 0,0
13.10.2018 06:00:00 18,9 12,2 17,4 15,1 15,5 14,4 22 12 32 17 S 1020,3 56 0 0,0
13.10.2018 05:00:00 19,0 12,3 17,5 15,0 15,6 14,4 23 13 31 17 S 1020,2 63 0 0,0
13.10.2018 04:00:00 19,5 12,2 17,5 15,2 15,7 14,4 18 10 34 19 S 1020,1 59 0 0,0
13.10.2018 03:00:00 19,6 12,0 17,9 15,3 15,7 14,4 21 11 30 16 S 1020,1 57 0 0,0
13.10.2018 02:00:00 20,2 12,1 18,7 15,5 15,8 14,4 21 11 39 21 S 1019,8 60 0 0,0
13.10.2018 01:00:00 20,1 12,2 18,4 15,7 15,9 14,4 23 12 33 18 S 1020,1 68 0 0,0
13.10.2018 00:00:00 19,9 12,1 18,2 15,8 15,9 14,4 22 12 29 16 S 1020,5 61 0 0,0
12.10.2018 23:00:00 19,9 12,4 18,1 16,1 16,0 14,4 22 12 30 16 S 1020,6 66 0 0,0
12.10.2018 22:00:00 20,2 12,8 18,6 16,4 16,0 14,4 21 11 33 18 S 1020,3 62 0 0,0
12.10.2018 21:00:00 20,2 13,0 18,6 16,7 16,0 14,4 20 11 30 16 S 1020,2 65 0 0,0
12.10.2018 20:00:00 20,4 13,4 18,6 17,2 16,0 14,4 18 10 23 13 SSE 1019,9 50 0 0,0
12.10.2018 19:00:00 21,2 13,5 19,4 18,1 15,9 14,4 16 9 29 16 SSE 1019,4 72 0 0,0
12.10.2018 18:00:00 22,6 13,4 21,7 19,1 15,7 14,4 24 13 33 18 S 1019,2 65 47 0,0
12.10.2018 17:00:00 23,5 13,4 24,1 19,9 15,4 14,4 19 11 38 21 S 1019,1 64 60 0,0
12.10.2018 16:00:00 23,7 13,5 24,7 20,4 15,2 14,4 19 11 36 19 SSW 1019,1 59 60 0,0
12.10.2018 15:00:00 23,3 13,5 24,8 20,4 14,9 14,4 23 12 39 21 SSW 1018,7 75 60 0,0
12.10.2018 14:00:00 22,9 13,1 25,1 19,6 14,6 14,4 22 12 36 19 S 1019,0 47 60 0,0
12.10.2018 13:00:00 22,4 12,5 23,3 18,7 14,4 14,4 25 14 35 19 S 1018,8 63 60 0,0
12.10.2018 12:00:00 21,0 13,4 22,0 17,9 14,3 14,4 24 13 44 24 S 1019,1 53 60 0,0
12.10.2018 11:00:00 19,3 12,5 19,6 16,0 14,2 14,4 24 13 36 19 S 1019,4 63 34 0,0
12.10.2018 10:00:00 17,7 11,9 17,4 14,4 14,3 14,4 27 14 40 21 S 1018,9 51 27 0,0
12.10.2018 09:00:00 17,0 11,9 16,3 13,6 14,4 14,4 27 14 40 22 S 1018,4 52 25 0,0
12.10.2018 08:00:00 16,5 11,6 15,2 13,3 14,4 14,4 21 12 32 17 S 1017,5 75 0 0,0
12.10.2018 07:00:00 16,1 11,3 14,7 13,4 14,5 14,4 19 10 30 16 S 1017,1 75 0 0,0
12.10.2018 06:00:00 16,6 11,4 15,2 13,6 14,6 14,4 20 11 31 17 SSW 1016,6 65 0 0,0
12.10.2018 05:00:00 16,4 11,2 15,0 14,0 14,6 14,4 19 10 29 16 SSW 1015,9 66 0 0,0
12.10.2018 04:00:00 16,5 11,2 14,8 14,1 14,7 14,4 18 10 36 19 S 1015,1 64 0 0,0
12.10.2018 03:00:00 17,4 11,3 16,1 14,3 14,8 14,4 26 14 38 21 S 1014,4 73 0 0,0
12.10.2018 02:00:00 18,1 11,1 16,9 14,3 14,9 14,4 30 16 44 24 SSW 1014,4 58 0 0,0
12.10.2018 01:00:00 18,6 10,6 17,3 14,4 15,0 14,4 27 15 44 24 SSW 1013,7 63 0 0,0
12.10.2018 00:00:00 18,5 10,6 16,9 14,5 15,1 14,4 27 15 40 22 S 1012,7 61 0 0,0
11.10.2018 23:00:00 18,7 10,5 16,7 14,7 15,2 14,4 28 15 39 21 SSE 1012,8 59 0 0,0
11.10.2018 22:00:00 18,8 10,5 16,8 15,1 15,2 14,4 25 14 40 21 SSE 1012,7 61 0 0,0
11.10.2018 21:00:00 18,9 11,1 16,6 15,4 15,3 14,4 22 12 28 15 SSE 1012,7 62 0 0,0
11.10.2018 20:00:00 17,9 10,9 13,9 16,2 15,2 14,4 10 6 20 11 SSE 1012,8 66 0 0,0
11.10.2018 19:00:00 19,7 11,3 16,8 17,4 15,0 14,4 10 5 36 19 S 1012,0 70 35 0,0
11.10.2018 18:00:00 21,6 11,1 21,5 18,5 14,7 14,4 21 12 31 17 SSE 1011,3 62 60 0,0
11.10.2018 17:00:00 22,5 11,5 23,6 19,3 14,4 14,4 20 11 38 21 SSE 1010,9 75 53 0,0
11.10.2018 16:00:00 21,9 11,8 22,3 19,0 14,1 14,4 22 12 35 19 SSE 1011,1 60 24 0,0
11.10.2018 15:00:00 22,7 11,9 24,5 18,7 13,9 14,4 28 15 41 22 S 1011,2 59 51 0,0
11.10.2018 14:00:00 21,1 11,0 22,2 17,3 13,7 14,4 22 12 33 18 SSE 1011,7 75 4 0,0
11.10.2018 13:00:00 19,9 11,3 20,4 15,9 13,5 14,4 10 6 30 16 SE 1011,8 61 0 0,0
11.10.2018 12:00:00 18,5 10,8 18,3 15,1 13,5 14,4 23 12 30 16 SSW 1012,2 67 0 0,0
11.10.2018 11:00:00 18,5 11,2 18,6 14,2 13,4 14,4 18 10 27 14 S 1012,4 75 0 0,0
11.10.2018 10:00:00 17,2 11,1 16,6 13,6 13,4 14,4 14 8 27 15 S 1012,5 49 10 0,0
11.10.2018 09:00:00 17,7 10,6 16,8 12,9 13,4 14,4 22 12 30 16 S 1012,2 40 34 0,0
11.10.2018 08:00:00 16,4 10,5 15,0 12,5 13,5 14,4 18 10 27 15 SSW 1011,7 41 0 0,0

tt = temperature
td = dewpoint
tt 5cm = temperature 5cm
tt -5cm = temperature -5cm
tt -20cm = temperature -20cm
tt -100cm = temperature -100cm
ff = wind speed
fx = gusts
dd = wind direction
ppp = reduced air pressure
vv = visibility
sd = sunshine duration
rr = precipitation

Next stations